sat.trackr.live / text

‹ back to catalog

STARLINK-5436

NORAD 54795 · 2022-175AP

PAYLOAD ACTIVE UNKNOWN

§ Identity

Operator
Country
US
Launch date
2022-12-17
Launch site
AFETR
Launch vehicle
Mass (kg)
RCS (m²)

Purposes: comms

External: N2YO · Heavens-Above · Gunter

§ Orbital elements

Epoch: 2026-09-20T12:30:02.268576Z

Period
93.85 min
Inclination
53.1586°
Eccentricity
0.0001339
Mean motion
15.34386098 rev/d
Perigee alt
461.8 km
Apogee alt
463.7 km
Semi-major
6,840.9 km
B*
1.2342e-5
RAAN
217.6065°
Arg perigee
92.0115°
Mean anomaly
268.1041°
Rev number
20,977

§ Raw data

STARLINK-54361 54795U 22175AP  26263.52085959  .00000041  00000+0  12342-4 0  99992 54795  53.1586 217.6065 0001339  92.0115 268.1041 15.34386098209775

JSON: /api/v1/satellites/54795 · /tle

For live sub-satellite position, see the globe view (requires WebGL).

§ Visibility from observer

Set your observer location to see the next 7 days of passes ≥ 10°. The values pass through the URL so the page stays shareable.

No JS? Fill the form by hand. The geolocation button needs JavaScript.